Storm Events Database

Event Details

Event Tornado
-- Scale EF2
-- Length 4.53 Miles
-- Width 200 Yards
State TEXAS
County/Area DONLEY
WFO AMA
Report Source NWS Storm Survey
NCDC Data Source CSV
Begin Date 2007-03-28 19:13:00.0 CST-6
Begin Location 9ESE JERICHO
Begin Lat/Lon 35.12/-100.78
End Date 2007-03-28 19:24:00.0 CST-6
End Location 11E JERICHO
End Lat/Lon 35.17/-100.73
Deaths Direct/Indirect 0/0 (fatality details below, when available...)
Injuries Direct/Indirect 0/0
Property Damage 0.17M
Crop Damage
Episode Narrative Severe thunderstorms during the evening hours produced numerous tornadoes and large hail across the southern...central and eastern Texas panhandle. Heavy rains caused flash flooding in the eastern Texas panhandle during the late night and early morning hours. One man was killed by a tornado in the northeastern Texas panhandle and another person was injured.
Event Narrative This tornado developed in northern Donley County near where Farm to Market Road 291 ends and then traveled northeast to near the Donley County and Gray County line and dissipated at 1924 CST about eleven miles east of Jericho. The tornado developed over ranch land initially causing sporadic damage to trees and fences. The first continuous track of damage encountered was to a newly constructed home...which sustained total roof loss as the roof was lifted...destroyed...and scattered over a mile northward. The house walls were constructed of reinforced concrete and were left intact...suffering only windblown hail damage to their stucco exterior. A few power poles were also snapped in the vicinity of the home. On a ranch to the north of the home...significant damage to hardwood trees was encountered ranging from snapped large branches to snapped trunks. Power poles were also snapped on the property and fencing was destroyed in several locations. The worst damage on this ranch was sustained in an area of dense tree coverage...where treetops were sheared off...intact trees were defoliated and large trunks were snapped. Two hundred yards of barbed wire fencing had been rolled into a ball. No injuries were reported.


     ‚Äč



All events for this episode:

Location County/Zone St. Date Time T.Z. Type Mag Dth Inj PrD CrD
Totals: 1 5 3.820M 0.00K
CLAUDE ARMSTRONG CO. TX 03/28/2007 16:50 CST-6 Hail 0.88 in. 0 0 0.00K 0.00K
CLAUDE ARMSTRONG CO. TX 03/28/2007 16:50 CST-6 Hail 1.00 in. 0 0 0.00K 0.00K
WAYSIDE ARMSTRONG CO. TX 03/28/2007 16:50 CST-6 Hail 2.75 in. 0 0 0.00K 0.00K
CLAUDE ARMSTRONG CO. TX 03/28/2007 16:51 CST-6 Hail 1.00 in. 0 0 0.00K 0.00K
AMARILLO POTTER CO. TX 03/28/2007 17:25 CST-6 Hail 2.75 in. 0 0 11.00K 0.00K
PANTEX CARSON CO. TX 03/28/2007 17:25 CST-6 Hail 2.75 in. 0 0 14.00K 0.00K
PANHANDLE CARSON CO. TX 03/28/2007 17:26 CST-6 Hail 2.75 in. 0 0 0.00K 0.00K
PANTEX CARSON CO. TX 03/28/2007 17:29 CST-6 Hail 1.25 in. 0 0 0.00K 0.00K
AMARILLO POTTER CO. TX 03/28/2007 17:30 CST-6 Thunderstorm Wind 61 kts. EG 0 0 12.00K 0.00K
PERRYTON OCHILTREE CO. TX 03/28/2007 17:30 CST-6 Hail 1.00 in. 0 0 0.00K 0.00K
BOOKER LIPSCOMB CO. TX 03/28/2007 17:35 CST-6 Hail 0.88 in. 0 0 0.00K 0.00K
PANHANDLE CARSON CO. TX 03/28/2007 17:37 CST-6 Hail 2.00 in. 0 0 0.00K 0.00K
CLARENDON DONLEY CO. TX 03/28/2007 17:40 CST-6 Tornado EF0 0 0 0.00K 0.00K
DARROUZETT LIPSCOMB CO. TX 03/28/2007 17:40 CST-6 Hail 0.75 in. 0 0 0.00K 0.00K
PANTEX CARSON CO. TX 03/28/2007 17:40 CST-6 Hail 4.50 in. 0 0 0.00K 0.00K
BORGER HUTCHINSON CO. TX 03/28/2007 17:45 CST-6 Hail 1.00 in. 0 0 0.00K 0.00K
SANFORD HUTCHINSON CO. TX 03/28/2007 17:47 CST-6 Hail 1.75 in. 0 0 0.00K 0.00K
BORGER HUTCHINSON CO. TX 03/28/2007 17:50 CST-6 Hail 2.00 in. 0 0 0.00K 0.00K
CLARENDON DONLEY CO. TX 03/28/2007 17:55 CST-6 Tornado EF1 0 0 5.00K 0.00K
STINNETT HUTCHINSON CO. TX 03/28/2007 17:59 CST-6 Hail 1.75 in. 0 0 0.00K 0.00K
CLAUDE ARMSTRONG CO. TX 03/28/2007 18:00 CST-6 Hail 1.00 in. 0 0 0.00K 0.00K
CLAUDE ARMSTRONG CO. TX 03/28/2007 18:00 CST-6 Hail 1.75 in. 0 0 0.00K 0.00K
FRITCH HUTCHINSON CO. TX 03/28/2007 18:00 CST-6 Hail 1.75 in. 0 0 0.00K 0.00K
CLARENDON DONLEY CO. TX 03/28/2007 18:05 CST-6 Tornado EF0 0 0 0.00K 0.00K
BOOKER LIPSCOMB CO. TX 03/28/2007 18:08 CST-6 Hail 2.75 in. 0 0 0.00K 0.00K
STINNETT HUTCHINSON CO. TX 03/28/2007 18:10 CST-6 Hail 1.75 in. 0 0 0.00K 0.00K
MORSE HANSFORD CO. TX 03/28/2007 18:12 CST-6 Hail 1.50 in. 0 0 0.00K 0.00K
CLARENDON DONLEY CO. TX 03/28/2007 18:15 CST-6 Hail 1.00 in. 0 0 0.00K 0.00K
STINNETT HUTCHINSON CO. TX 03/28/2007 18:15 CST-6 Hail 1.00 in. 0 0 0.00K 0.00K
BOOKER LIPSCOMB CO. TX 03/28/2007 18:16 CST-6 Tornado EF0 0 0 0.00K 0.00K
GRUVER HANSFORD CO. TX 03/28/2007 18:20 CST-6 Hail 0.88 in. 0 0 0.00K 0.00K
CLARENDON DONLEY CO. TX 03/28/2007 18:22 CST-6 Thunderstorm Wind 52 kts. EG 0 0 34.00K 0.00K
JERICHO DONLEY CO. TX 03/28/2007 18:39 CST-6 Tornado EF3 0 2 180.00K 0.00K
CLAUDE ARMSTRONG CO. TX 03/28/2007 18:45 CST-6 Hail 1.00 in. 0 0 0.00K 0.00K
HEDLEY DONLEY CO. TX 03/28/2007 18:46 CST-6 Tornado EF2 0 0 63.00K 0.00K
LEFORS GRAY CO. TX 03/28/2007 18:48 CST-6 Tornado EF3 0 2 100.00K 0.00K
HEDLEY DONLEY CO. TX 03/28/2007 19:02 CST-6 Tornado EF0 0 0 0.00K 0.00K
MIAMI ROBERTS CO. TX 03/28/2007 19:05 CST-6 Hail 0.75 in. 0 0 0.00K 0.00K
PAMPA GRAY CO. TX 03/28/2007 19:05 CST-6 Hail 0.88 in. 0 0 0.00K 0.00K
HOWARDWICK DONLEY CO. TX 03/28/2007 19:07 CST-6 Hail 2.75 in. 0 0 0.00K 0.00K
MC LEAN GRAY CO. TX 03/28/2007 19:10 CST-6 Hail 2.75 in. 0 0 0.00K 0.00K
JERICHO DONLEY CO. TX 03/28/2007 19:13 CST-6 Tornado EF2 0 0 170.00K 0.00K
JERICHO DONLEY CO. TX 03/28/2007 19:15 CST-6 Tornado EF0 0 0 0.00K 0.00K
CANYON RANDALL CO. TX 03/28/2007 19:23 CST-6 Hail 1.25 in. 0 0 0.00K 0.00K
MC LEAN GRAY CO. TX 03/28/2007 19:23 CST-6 Tornado EF2 0 0 74.00K 0.00K
CANYON RANDALL CO. TX 03/28/2007 19:26 CST-6 Hail 1.00 in. 0 0 0.00K 0.00K
LEFORS GRAY CO. TX 03/28/2007 19:30 CST-6 Tornado EF0 0 0 3.00K 0.00K
MC LEAN GRAY CO. TX 03/28/2007 19:30 CST-6 Hail 2.75 in. 0 0 0.00K 0.00K
MC LEAN GRAY CO. TX 03/28/2007 19:34 CST-6 Hail 2.75 in. 0 0 0.00K 0.00K
ALANREED GRAY CO. TX 03/28/2007 19:35 CST-6 Hail 1.00 in. 0 0 0.00K 0.00K
AMARILLO RANDALL CO. TX 03/28/2007 19:35 CST-6 Hail 0.88 in. 0 0 0.00K 0.00K
AMARILLO POTTER CO. TX 03/28/2007 19:36 CST-6 Hail 0.75 in. 0 0 0.00K 0.00K
LEFORS GRAY CO. TX 03/28/2007 19:36 CST-6 Tornado EF1 0 0 39.00K 0.00K
PANHANDLE CARSON CO. TX 03/28/2007 19:37 CST-6 Thunderstorm Wind 76 kts. EG 0 0 0.00K 0.00K
FRITCH HUTCHINSON CO. TX 03/28/2007 19:40 CST-6 Hail 0.88 in. 0 0 0.00K 0.00K
AMARILLO POTTER CO. TX 03/28/2007 19:45 CST-6 Hail 1.00 in. 0 0 0.00K 0.00K
KINGS MILL GRAY CO. TX 03/28/2007 19:45 CST-6 Hail 0.75 in. 0 0 0.00K 0.00K
MC LEAN GRAY CO. TX 03/28/2007 19:45 CST-6 Tornado EF3 0 0 27.00K 0.00K
CANYON RANDALL CO. TX 03/28/2007 19:52 CST-6 Hail 0.88 in. 0 0 0.00K 0.00K
AMARILLO POTTER CO. TX 03/28/2007 20:20 CST-6 Hail 1.75 in. 0 0 0.00K 0.00K
HEREFORD DEAF SMITH CO. TX 03/28/2007 20:25 CST-6 Hail 0.88 in. 0 0 0.00K 0.00K
AMARILLO POTTER CO. TX 03/28/2007 20:26 CST-6 Hail 0.88 in. 0 0 0.00K 0.00K
CANADIAN HEMPHILL CO. TX 03/28/2007 20:30 CST-6 Hail 1.75 in. 0 0 0.00K 0.00K
CANADIAN HEMPHILL CO. TX 03/28/2007 20:30 CST-6 Tornado EF3 1 1 3.000M 0.00K
GRUVER HANSFORD CO. TX 03/28/2007 20:30 CST-6 Hail 1.00 in. 0 0 0.00K 0.00K
LEFORS GRAY CO. TX 03/28/2007 20:30 CST-6 Hail 2.75 in. 0 0 0.00K 0.00K
CANYON RANDALL CO. TX 03/28/2007 20:40 CST-6 Hail 0.88 in. 0 0 0.00K 0.00K
AMARILLO POTTER CO. TX 03/28/2007 20:45 CST-6 Hail 1.00 in. 0 0 0.00K 0.00K
MIAMI ROBERTS CO. TX 03/28/2007 20:45 CST-6 Thunderstorm Wind 61 kts. EG 0 0 43.00K 0.00K
CANADIAN HEMPHILL CO. TX 03/28/2007 20:58 CST-6 Hail 0.88 in. 0 0 0.00K 0.00K
CANADIAN HEMPHILL CO. TX 03/28/2007 21:00 CST-6 Hail 1.75 in. 0 0 0.00K 0.00K
CANADIAN HEMPHILL CO. TX 03/28/2007 21:00 CST-6 Hail 1.25 in. 0 0 0.00K 0.00K
CANADIAN HEMPHILL CO. TX 03/28/2007 21:00 CST-6 Thunderstorm Wind 52 kts. EG 0 0 0.00K 0.00K
PAMPA GRAY CO. TX 03/28/2007 21:00 CST-6 Hail 1.00 in. 0 0 0.00K 0.00K
BOOKER LIPSCOMB CO. TX 03/28/2007 21:04 CST-6 Hail 0.75 in. 0 0 0.00K 0.00K
GLAZIER HEMPHILL CO. TX 03/28/2007 21:18 CST-6 Hail 0.75 in. 0 0 0.00K 0.00K
STINNETT HUTCHINSON CO. TX 03/28/2007 21:20 CST-6 Hail 1.75 in. 0 0 0.00K 0.00K
FRITCH HUTCHINSON CO. TX 03/28/2007 21:25 CST-6 Hail 1.00 in. 0 0 0.00K 0.00K
CLAUDE ARMSTRONG CO. TX 03/28/2007 22:12 CST-6 Thunderstorm Wind 57 kts. EG 0 0 0.00K 0.00K
CLAUDE ARMSTRONG CO. TX 03/28/2007 22:18 CST-6 Hail 0.75 in. 0 0 0.00K 0.00K
CLAUDE ARMSTRONG CO. TX 03/28/2007 22:18 CST-6 Hail 1.00 in. 0 0 0.00K 0.00K
CLAUDE ARMSTRONG CO. TX 03/28/2007 22:20 CST-6 Hail 0.75 in. 0 0 0.00K 0.00K
DARROUZETT LIPSCOMB CO. TX 03/28/2007 22:24 CST-6 Thunderstorm Wind 80 kts. EG 0 0 9.00K 0.00K
CLAUDE ARMSTRONG CO. TX 03/28/2007 22:26 CST-6 Thunderstorm Wind 56 kts. EG 0 0 28.00K 0.00K
MIAMI ROBERTS CO. TX 03/28/2007 22:41 CST-6 Hail 1.00 in. 0 0 0.00K 0.00K
LEFORS GRAY CO. TX 03/28/2007 23:20 CST-6 Flash Flood 0 0 8.00K 0.00K
CLARENDON DONLEY CO. TX 03/28/2007 23:30 CST-6 Hail 0.75 in. 0 0 0.00K 0.00K
Totals: 1 5 3.820M 0.00K